Los Angeles Downtown, CA

3:32 PM PDT on April 23, 2018 (GMT -0700)
Los Angeles Downtown

Weather History for KCQT - February, 2014

Change the Weather History Date:

Sunday, February 2, 2014

  Actual Average Record
Temperature  
Mean Temperature 55 °F 58 °F  
Max Temperature 63 °F 68 °F 94 °F (1995)
Min Temperature 47 °F 48 °F 34 °F (1901)
Degree Days  
Heating Degree Days 10 7  
Month to date heating degree days 17 14  
Since 1 July heating degree days 390 605  
Cooling Degree Days 0 0  
Month to date cooling degree days 0 0  
Year to date cooling degree days 17 9  
Growing Degree Days 4 (Base 50)    
Moisture  
Dew Point 35 °F    
Average Humidity 52    
Maximum Humidity 80    
Minimum Humidity 24    
Precipitation  
Precipitation 0.14 in 0.11 in 2.84 in (1884)
Month to date precipitation 0.14 0.23  
Year to date precipitation 0.14 3.35  
Since 1 July precipitation 1.11  
Sea Level Pressure  
Sea Level Pressure 30.03 in    
Wind  
Wind Speed 2 mph (ESE)    
Max Wind Speed 10 mph    
Max Gust Speed -    
Visibility 9 miles    
Events Rain    
T = Trace of Precipitation, MM = Missing Value Source: NWS Daily Summary

Daily Weather History Graph

Daily Weather History Graph

Search for Another Location

Airport or City:

Astronomy

Feb. 02, 2014 Rise Set
Actual Time 6:49 AM PST 5:24 PM PST
Civil Twilight 6:23 AM PST 5:50 PM PST
Nautical Twilight 5:53 AM PST 6:20 PM PST
Astronomical Twilight 5:23 AM PST 6:50 PM PST
Moon 8:29 AM PST (2/2) 9:01 PM PST (2/2)
Length of Visible Light 11h 27m
Length of Day
10h 35m
Waxing Crescent, 12% of the Moon is Illuminated
Feb 2
Waxing Crescent
Feb 6
First Quarter
Feb 14
Full
Feb 22
Last Quarter
Mar 1
New

Hourly Weather History & Observations

Time (PST) Temp. Dew Point Humidity Pressure Visibility Wind Dir Wind Speed Gust Speed Precip Events Conditions
12:47 AM 48.9 °F 21.9 °F 35% 30.06 in 10.0 mi Calm Calm - N/A   Clear
1:47 AM 48.9 °F 21.9 °F 35% 30.07 in 10.0 mi Calm Calm - N/A   Clear
2:47 AM 48.0 °F 21.9 °F 36% 30.07 in 10.0 mi Calm Calm - N/A   Clear
3:47 AM 48.0 °F 19.9 °F 33% 30.06 in 10.0 mi Calm Calm - N/A   Clear
4:47 AM 46.9 °F 24.1 °F 41% 30.06 in 10.0 mi Calm Calm - N/A   Clear
5:47 AM 50.0 °F 17.1 °F 27% 30.06 in 10.0 mi Variable 3.5 mph - N/A   Clear
6:47 AM 50.0 °F 16.0 °F 26% 30.08 in 10.0 mi Calm Calm - N/A   Clear
7:47 AM 52.0 °F 19.0 °F 27% 30.08 in 10.0 mi East 4.6 mph - N/A   Clear
8:47 AM 55.0 °F 21.9 °F 28% 30.09 in 10.0 mi Variable 3.5 mph - N/A   Clear
9:47 AM 57.9 °F 32.0 °F 37% 30.10 in 10.0 mi Variable 3.5 mph - N/A   Clear
10:47 AM 57.9 °F 41.0 °F 53% 30.06 in 10.0 mi Variable 4.6 mph - N/A   Partly Cloudy
11:47 AM 61.0 °F 39.9 °F 46% 30.04 in 10.0 mi Variable 4.6 mph - N/A   Clear
12:47 PM 62.1 °F 45.0 °F 53% 30.00 in 10.0 mi Calm Calm - N/A   Mostly Cloudy
1:47 PM 60.1 °F 43.0 °F 53% 29.98 in 10.0 mi Variable 4.6 mph - N/A   Overcast
2:47 PM 61.0 °F 43.0 °F 52% 29.97 in 10.0 mi WSW 4.6 mph - N/A   Mostly Cloudy
3:47 PM 59.0 °F 42.1 °F 53% 29.98 in 10.0 mi Calm Calm - N/A   Clear
4:47 PM 57.0 °F 43.0 °F 59% 29.99 in 10.0 mi Calm Calm - N/A   Overcast
5:47 PM 55.9 °F 43.0 °F 62% 30.00 in 10.0 mi Calm Calm - N/A   Overcast
6:44 PM 51.8 °F 44.6 °F 76% 30.01 in 2.5 mi Variable 4.6 mph - 0.04 in Rain Rain
6:47 PM 50.0 °F 44.1 °F 80% 30.02 in 2.5 mi Calm Calm - 0.05 in Rain Rain
6:52 PM 50.0 °F 44.6 °F 82% 30.01 in 3.0 mi Calm Calm - 0.01 in Rain Rain
7:47 PM 50.0 °F 45.0 °F 83% 30.00 in 10.0 mi Calm Calm - 0.05 in Rain Light Rain
8:47 PM 50.0 °F 46.0 °F 86% 30.00 in 10.0 mi Variable 3.5 mph - 0.04 in   Overcast
9:47 PM 51.1 °F 43.0 °F 74% 29.98 in 10.0 mi ESE 4.6 mph - N/A   Overcast
10:47 PM 50.0 °F 39.9 °F 68% 29.97 in 10.0 mi East 5.8 mph - N/A   Clear
11:47 PM 51.1 °F 39.0 °F 63% 29.96 in 10.0 mi Calm Calm - N/A   Overcast